[[{"header":{"parameterUnit":"m.s-1","parameterCategory":1,"la1":30.2991,"la2":30.254,"lo1":-89.0895,"lo2":-89.0444,"dy":0.0017,"dx":0.0017,"nx":28,"ny":28,"refTime":"2026-02-08T03:00:00:Z","depth":0,"parameterNumber":2,"parameterNumberName":"U-component_of_WINDS"},"data":[0,0,0,0,0,0,0,0,0,0,0,0,0,0,0,0,0,0,0,0,0,0,0,0,0,0,0,0,0,0,0,0,0,0,0,0,0,0,0,0,0,0,0,0,0,0,0,0,0,0,0,0,0,0,0,0,0,0,-1.7573,-1.7573,0,-1.7591,-1.7591,-1.7592,-1.7555,-1.7554,-1.7552,-1.7551,-1.7571,-1.7572,-1.7574,0,0,0,0,0,0,0,0,0,0,0,0,0,-1.7507,-1.7508,-1.7573,-1.7573,-1.7573,-1.7591,-1.7591,-1.7592,-1.7555,-1.7554,-1.7552,-1.7551,-1.757,-1.7572,-1.7574,0,0,0,0,0,0,0,0,0,0,0,0,0,-1.7532,-1.7509,-1.7573,-1.7557,-1.7556,-1.7591,-1.7591,-1.7592,-1.7555,-1.7554,-1.7552,-1.755,-1.7569,-1.7572,-1.7574,-1.7625,0,0,-1.7582,-1.7583,0,0,0,0,0,0,0,0,-1.753,-1.7534,-1.7559,-1.7558,-1.7557,-1.7569,-1.7575,-1.7603,-1.7556,-1.7556,-1.7551,-1.7549,-1.7571,-1.7574,-1.7581,-1.7626,-1.7627,-1.7582,-1.7583,-1.7584,-1.7585,0,0,0,0,0,0,0,-1.7529,-1.7533,-1.758,-1.756,-1.7558,-1.755,-1.7551,-1.758,-1.7573,-1.7555,-1.7553,-1.7556,-1.757,-1.7579,-1.7581,-1.7627,-1.7582,-1.7584,-1.7585,-1.7586,-1.7716,-1.7718,0,0,0,0,0,0,-1.7529,-1.7532,-1.7579,-1.7581,-1.7539,-1.7552,-1.7554,-1.7567,-1.7573,-1.7572,-1.7557,-1.7554,-1.7575,-1.7578,-1.7582,-1.7642,-1.7584,-1.7587,-1.7588,-1.7715,-1.7717,-1.7719,0,0,0,0,0,0,-1.7527,-1.7533,-1.7579,-1.7556,-1.7561,-1.7555,-1.757,-1.7568,-1.7576,-1.7574,-1.7573,-1.7567,-1.7574,-1.7578,-1.7615,-1.7642,-1.7588,-1.759,-1.7712,-1.7715,-1.7718,-1.7763,0,0,0,0,0,0,-1.7526,-1.7533,-1.7552,-1.7556,-1.7562,-1.7611,-1.7572,-1.757,-1.7581,-1.7577,-1.7583,-1.7582,-1.7573,-1.7611,-1.7617,-1.7644,-1.7592,-1.771,-1.7714,-1.7717,-1.7759,-1.7767,-1.7774,0,0,0,0,0,-1.7524,-1.7564,-1.7553,-1.7559,-1.7586,-1.7613,-1.7616,-1.7605,-1.7583,-1.7602,-1.7601,-1.7582,-1.7639,-1.7616,-1.7622,-1.765,-1.7708,-1.7712,-1.7717,-1.7756,-1.7765,-1.7774,0,0,0,0,0,0,-1.7563,-1.7564,-1.7552,-1.7595,-1.7604,-1.7607,-1.763,-1.7616,-1.7631,-1.7626,-1.7612,-1.7614,-1.7653,-1.7656,-1.763,-1.7701,-1.767,-1.7676,-1.7697,-1.7706,-1.7714,-1.7711,-1.7594,0,0,0,0,0,-1.7576,-1.7598,-1.7598,-1.7636,-1.7642,-1.7635,-1.7647,-1.7637,-1.7646,-1.765,-1.7651,-1.7661,-1.7681,-1.7694,-1.7712,-1.776,-1.7761,-1.7783,-1.779,-1.7797,-1.7801,-1.7827,-1.7836,-1.7734,-1.7734,-1.7734,0,0,-1.7604,-1.7608,-1.7623,-1.7644,-1.765,-1.7673,-1.7639,-1.7664,-1.7681,-1.7654,-1.7688,-1.769,-1.77,-1.7742,-1.7761,-1.7745,-1.783,-1.7802,-1.7807,-1.7808,-1.7832,-1.7842,-1.7851,-1.7737,-1.7736,-1.7736,0,0,-1.7667,-1.7673,-1.7704,-1.7712,-1.7721,-1.7717,-1.7725,-1.773,-1.773,-1.7765,-1.7745,-1.7765,-1.78,-1.7808,-1.7816,-1.7885,-1.7868,-1.7891,-1.793,-1.7955,-1.7963,-1.797,-1.7994,-1.8003,-1.7897,-1.7897,-1.7897,0,-1.7701,-1.7734,-1.7723,-1.775,-1.776,-1.7737,-1.777,-1.7777,-1.7793,-1.78,-1.7783,-1.7827,-1.7832,-1.7876,-1.7892,-1.7901,-1.7909,-1.7889,-1.7963,-1.797,-1.7976,-1.7999,-1.8008,-1.7899,-1.7899,-1.7899,-1.7899,0,-1.7775,-1.7799,-1.7824,-1.7839,-1.7853,-1.7883,-1.7876,-1.7891,-1.7882,-1.788,-1.7916,-1.7921,-1.794,-1.7951,-1.7941,-1.7994,-1.7984,-1.7965,-1.7933,-1.7989,-1.801,-1.8018,-1.7903,-1.7902,-1.7901,-1.7901,0,0,-1.786,-1.787,-1.7879,-1.7886,-1.7897,-1.7915,-1.7945,-1.7963,-1.7976,-1.7989,-1.8013,-1.8044,-1.8027,-1.8037,-1.8029,-1.8051,-1.8104,-1.803,-1.803,-1.8042,-1.8162,-1.8175,-1.8185,-1.8094,-1.8096,-1.8097,-1.8161,0,-1.7921,-1.7971,-1.7963,-1.8012,-1.8034,-1.8013,-1.8039,-1.8049,-1.8048,-1.8067,-1.8067,-1.8089,-1.8066,-1.8072,-1.8093,-1.8093,-1.8128,-1.8089,-1.8116,-1.8117,-1.8112,-1.8196,-1.8209,-1.8269,-1.8169,-1.8171,-1.8172,0,-1.7999,-1.8014,-1.8065,-1.8072,-1.8081,-1.8105,-1.8122,-1.814,-1.8151,-1.815,-1.8162,-1.815,-1.818,-1.815,-1.8191,-1.8165,-1.8176,-1.8178,-1.818,-1.8181,-1.8146,-1.8197,-1.8288,-1.8296,-1.8184,-1.8183,-1.8183,0,-1.8054,-1.8088,-1.8123,-1.813,-1.8139,-1.8156,-1.8161,-1.817,-1.8183,-1.8198,-1.8206,-1.8225,-1.8235,-1.8251,-1.8245,-1.8223,-1.8287,-1.8257,-1.8286,-1.8287,-1.8299,-1.8298,-1.8391,-1.8309,-1.8309,-1.8309,-1.8309,0,-1.8122,-1.8154,-1.8148,-1.8169,-1.8204,-1.8195,-1.8231,-1.8233,-1.8242,-1.8264,-1.8248,-1.8269,-1.8261,-1.8282,-1.8278,-1.8312,-1.8317,-1.8317,-1.8315,-1.8317,-1.8317,-1.8322,-1.8318,-1.8311,-1.8311,-1.831,-1.831,0,-1.8189,-1.8186,-1.8223,-1.823,-1.8233,-1.8258,-1.8264,-1.8285,-1.8284,-1.8312,-1.8318,-1.8317,-1.8341,-1.8337,-1.8364,-1.8361,-1.8404,-1.8398,-1.84,-1.8398,-1.8428,-1.8424,-1.8526,-1.8539,-1.8451,-1.8452,-1.8452,0,-1.8232,-1.8255,-1.8266,-1.8279,-1.8285,-1.8308,-1.832,-1.8313,-1.8327,-1.8342,-1.8361,-1.8383,-1.84,-1.844,-1.8442,-1.8462,-1.8456,-1.849,-1.8458,-1.846,-1.8455,-1.8452,-1.8455,-1.8495,-1.8496,-1.8497,-1.8498,0,-1.8307,-1.8305,-1.8324,-1.8343,-1.8359,-1.8373,-1.8386,-1.8398,-1.8393,-1.8409,-1.8433,-1.8447,-1.8475,-1.8497,-1.8517,-1.8522,-1.8509,-1.8508,-1.8516,-1.8517,-1.8517,-1.8516,-1.8415,-1.8505,-1.8505,-1.8504,-1.8504,-1.8503,-1.8362,-1.8382,-1.8393,-1.8415,-1.8424,-1.8437,-1.8457,-1.8459,-1.8479,-1.8501,-1.8496,-1.8523,-1.8535,-1.856,-1.8568,-1.859,-1.8577,-1.8589,-1.8591,-1.8594,-1.8597,-1.8516,-1.8594,-1.8593,-1.8593,-1.8593,-1.8593,0,-1.8435,-1.8442,-1.8462,-1.8481,-1.8499,-1.8486,-1.8501,-1.8516,-1.854,-1.8552,-1.857,-1.8598,-1.8621,-1.8626,-1.8647,-1.8664,-1.8658,-1.8669,-1.8667,-1.8668,-1.8607,-1.8598,-1.8673,-1.8673,-1.8673,-1.8673,-1.8673,-1.8673,-1.8475,-1.8509,-1.8509,-1.8548,-1.8554,-1.8581,-1.859,-1.8602,-1.8612,-1.8644,-1.8662,-1.8666,-1.8675,-1.8698,-1.8718,-1.8719,-1.8727,-1.874,-1.8739,-1.8681,-1.8673,-1.8665,-1.8656,-1.8742,-1.8743,-1.8798,-1.8799,-1.8799]},{"header":{"parameterUnit":"m.s-1","parameterCategory":1,"la1":30.2991,"la2":30.254,"lo1":-89.0895,"lo2":-89.0444,"dy":0.0017,"dx":0.0017,"nx":28,"ny":28,"refTime":"2026-02-08T03:00:00:Z","depth":0,"parameterNumber":3,"parameterNumberName":"V-component_of_WINDS"},"data":[0,0,0,0,0,0,0,0,0,0,0,0,0,0,0,0,0,0,0,0,0,0,0,0,0,0,0,0,0,0,0,0,0,0,0,0,0,0,0,0,0,0,0,0,0,0,0,0,0,0,0,0,0,0,0,0,0,0,1.4093,1.4094,0,1.4111,1.4112,1.4112,1.4223,1.4226,1.4228,1.4231,1.4245,1.4243,1.4241,0,0,0,0,0,0,0,0,0,0,0,0,0,1.4152,1.4151,1.4093,1.4094,1.4094,1.4111,1.4112,1.4112,1.4223,1.4226,1.4229,1.4232,1.4245,1.4243,1.424,0,0,0,0,0,0,0,0,0,0,0,0,0,1.4144,1.415,1.4093,1.4151,1.4157,1.4111,1.4112,1.4112,1.4222,1.4226,1.423,1.4234,1.4246,1.4243,1.424,1.4139,0,0,1.423,1.4229,0,0,0,0,0,0,0,0,1.4144,1.4142,1.4143,1.4147,1.4153,1.4169,1.4138,1.4121,1.4221,1.4197,1.4231,1.4236,1.4216,1.4216,1.421,1.4139,1.414,1.423,1.4228,1.4226,1.4226,0,0,0,0,0,0,0,1.4145,1.4142,1.41,1.4142,1.4149,1.4176,1.4179,1.4135,1.4183,1.4199,1.4208,1.4208,1.422,1.4213,1.4211,1.414,1.423,1.4227,1.4225,1.4224,1.3991,1.3987,0,0,0,0,0,0,1.4138,1.4141,1.41,1.4101,1.4159,1.4171,1.4175,1.416,1.4184,1.4192,1.4205,1.4214,1.4216,1.4215,1.4212,1.4097,1.4226,1.4223,1.4222,1.3995,1.399,1.3985,0,0,0,0,0,0,1.4139,1.4133,1.4099,1.4123,1.4121,1.4166,1.4148,1.4158,1.4151,1.4189,1.4197,1.4189,1.4219,1.4216,1.4157,1.4099,1.4222,1.4219,1.4,1.3993,1.3987,1.3865,0,0,0,0,0,0,1.414,1.4133,1.4095,1.4122,1.4119,1.4044,1.4145,1.4156,1.4146,1.4157,1.4176,1.4183,1.4222,1.4161,1.4154,1.4097,1.4217,1.4005,1.3997,1.3989,1.3874,1.3855,1.3839,0,0,0,0,0,1.4141,1.4058,1.4092,1.4087,1.4074,1.4041,1.4039,1.4088,1.4141,1.4103,1.4128,1.4182,1.4107,1.4154,1.4147,1.4088,1.4009,1.3999,1.399,1.3882,1.3859,1.3839,0,0,0,0,0,0,1.402,1.4062,1.4101,1.4024,1.4028,1.406,1.4014,1.4061,1.4049,1.406,1.4119,1.4123,1.4055,1.4065,1.4118,1.3993,1.4067,1.4056,1.3988,1.3966,1.3949,1.3947,1.4214,0,0,0,0,0,1.3985,1.3956,1.3994,1.3922,1.3923,1.3968,1.3955,1.3993,1.3999,1.4,1.402,1.4023,1.4001,1.3984,1.3965,1.3877,1.3883,1.3833,1.3815,1.38,1.3789,1.3745,1.3724,1.3954,1.3954,1.3954,0,0,1.3911,1.3931,1.3908,1.3899,1.3907,1.3875,1.3968,1.393,1.3907,1.3994,1.394,1.3955,1.3962,1.3889,1.3857,1.3895,1.3727,1.3788,1.3776,1.3773,1.3733,1.3712,1.3692,1.3947,1.3948,1.3949,0,0,1.3761,1.3772,1.3715,1.3722,1.3733,1.3764,1.375,1.3775,1.3789,1.3737,1.3802,1.3775,1.3734,1.3737,1.3733,1.3587,1.3637,1.3579,1.3486,1.3442,1.3424,1.3409,1.3358,1.3339,1.3568,1.3568,1.3568,0,1.3667,1.3623,1.3679,1.3638,1.3632,1.3712,1.3655,1.3658,1.3662,1.3656,1.3699,1.3652,1.3662,1.3591,1.3556,1.3549,1.3536,1.3577,1.3423,1.3408,1.3394,1.3346,1.3326,1.3561,1.3562,1.3563,1.3563,0,1.3508,1.3476,1.3429,1.3433,1.3422,1.3373,1.3421,1.3403,1.3442,1.3468,1.3414,1.343,1.3417,1.3403,1.3439,1.3337,1.3361,1.3412,1.3489,1.3364,1.332,1.3302,1.3551,1.3553,1.3556,1.3557,0,0,1.3279,1.3319,1.33,1.3304,1.3324,1.3301,1.3255,1.3245,1.3229,1.3229,1.3193,1.3157,1.3206,1.3202,1.324,1.3201,1.3087,1.3258,1.3259,1.3226,1.2977,1.2939,1.2917,1.312,1.3117,1.3114,1.2977,0,1.3136,1.3063,1.3113,1.3031,1.3004,1.3081,1.3042,1.3049,1.3073,1.3052,1.3078,1.3053,1.3119,1.3117,1.3083,1.3108,1.3037,1.3118,1.3087,1.3085,1.3083,1.2894,1.2852,1.2722,1.296,1.2957,1.2955,0,1.2959,1.2955,1.287,1.2899,1.2889,1.2853,1.2849,1.2828,1.2839,1.2859,1.2855,1.2904,1.2861,1.2937,1.2879,1.2933,1.2924,1.2934,1.293,1.2929,1.3013,1.2888,1.2682,1.2662,1.2929,1.2931,1.2933,0,1.2802,1.2775,1.2722,1.2723,1.2755,1.2728,1.2739,1.2755,1.2746,1.2741,1.2736,1.2726,1.272,1.2711,1.2755,1.2806,1.2692,1.2771,1.2708,1.2706,1.268,1.2681,1.2469,1.2672,1.2673,1.2673,1.2673,0,1.2637,1.2583,1.2653,1.262,1.2562,1.2621,1.2561,1.2581,1.2594,1.2566,1.2631,1.2603,1.2664,1.2642,1.2676,1.2624,1.2621,1.2636,1.2645,1.263,1.2628,1.2625,1.2635,1.2668,1.2669,1.267,1.2671,0,1.2452,1.2497,1.2445,1.248,1.2488,1.2443,1.2473,1.2444,1.2474,1.2438,1.2432,1.2477,1.2456,1.25,1.2482,1.2506,1.2433,1.2456,1.243,1.2437,1.2372,1.2377,1.2151,1.2124,1.2343,1.2341,1.2339,0,1.2344,1.2305,1.2337,1.2325,1.2333,1.2311,1.2304,1.236,1.2349,1.236,1.233,1.2314,1.2305,1.2266,1.2297,1.2285,1.2309,1.223,1.2307,1.2294,1.2309,1.2311,1.2308,1.2214,1.2211,1.2209,1.2208,0,1.2148,1.2173,1.2161,1.2156,1.2146,1.2144,1.2147,1.2133,1.2193,1.2178,1.2158,1.215,1.2135,1.2119,1.2114,1.2126,1.2176,1.2183,1.2168,1.2152,1.2139,1.2147,1.2387,1.2188,1.219,1.2191,1.2192,1.2193,1.1999,1.1969,1.1988,1.1972,1.1981,1.1983,1.1959,1.1986,1.1971,1.1965,1.1999,1.1971,1.1985,1.1985,1.1991,1.197,1.2006,1.1983,1.1978,1.1971,1.1962,1.2142,1.1969,1.197,1.1971,1.1971,1.1972,0,1.1808,1.1825,1.181,1.1814,1.1802,1.1853,1.186,1.1846,1.1822,1.1831,1.1822,1.1799,1.1784,1.1815,1.1805,1.1782,1.1805,1.1778,1.178,1.1782,1.193,1.1945,1.1759,1.1759,1.1759,1.176,1.176,1.176,1.1707,1.1659,1.1686,1.1644,1.1661,1.1636,1.1636,1.1638,1.1647,1.162,1.1609,1.163,1.1648,1.164,1.1629,1.1638,1.1632,1.1596,1.1613,1.1751,1.1771,1.1791,1.1805,1.1594,1.1594,1.1468,1.1466,1.1466]}]]